1531101600.89,49816,20.19,74122.0,2.19,-16.69,-14.43,0,*7F
1531101602.12,49817,20.19,74122.0,2.19,-16.65,-14.33,0,*75
1531101603.35,49818,20.19,74118.5,2.19,-16.65,-14.33,0,*7A
1531101604.56,49819,20.19,74122.5,2.19,-16.03,-13.79,0,*72
1531101605.78,49820,20.19,74120.3,2.19,-16.31,-14.29,0,*7B
1531101607.01,49821,20.19,74122.3,2.19,-16.23,-14.15,0,*76
1531101608.21,49822,20.19,74120.3,2.19,-16.55,-14.33,0,*70
1531101609.44,49823,20.19,74120.3,2.19,-16.79,-14.47,0,*7C
1531101610.69,49824,20.19,74122.8,2.17,-16.69,-14.19,0,*7F
1531101611.92,49825,20.19,74120.5,2.17,-16.89,-14.69,0,*77
1531101613.17,49826,20.19,74124.3,2.17,-16.69,-14.23,0,*74
1531101614.4,49827,20.19,74118.5,2.17,-16.75,-14.23,0,*78
1531101615.69,49828,20.19,74120.0,2.17,-16.09,-13.61,0,*7D
1531101616.97,49829,20.19,74120.3,2.17,-16.09,-13.97,0,*75
1531101618.22,49830,20.19,74120.0,2.15,-16.09,-13.83,0,*7A
1531101619.45,49831,20.19,74116.8,2.17,-16.41,-14.19,0,*71
1531101620.69,49832,20.19,74118.3,2.17,-16.41,-14.23,0,*7B
1531101621.91,49833,20.19,74122.8,2.15,-16.23,-14.23,0,*7C
1531101623.14,49834,20.19,74122.5,2.17,-16.83,-14.61,0,*75
1531101624.39,49835,20.19,74120.5,2.17,-16.69,-14.37,0,*73
1531101625.62,49836,20.19,74122.5,2.17,-16.55,-14.19,0,*73
1531101626.87,49837,20.19,74120.8,2.15,-16.23,-13.83,0,*75
1531101628.09,49838,20.19,74118.8,2.15,-15.85,-13.51,0,*7A
1531101629.31,49839,20.19,74120.5,2.15,-15.71,-13.37,0,*70
1531101630.54,49840,20.19,74122.0,2.15,-15.57,-13.19,0,*76
1531101631.74,49841,20.19,74120.5,2.15,-14.65,-12.21,0,*7D
1531101633.03,49842,20.19,74122.0,2.17,-13.97,-11.89,0,*77
1531101634.26,49843,20.19,74118.5,2.15,-14.11,-12.11,0,*7F
1531101635.52,49844,20.19,74120.5,2.15,-14.51,-12.61,0,*7B
1531101636.77,49845,20.19,74122.5,2.15,-14.51,-12.53,0,*7B
1531101637.99,49846,20.19,74116.3,2.17,-15.11,-13.07,0,*7F
1531101639.23,49847,20.19,74118.5,2.15,-15.21,-12.83,0,*72
1531101640.45,49848,20.19,74120.0,2.15,-15.21,-12.97,0,*78
1531101641.68,49849,20.19,74120.3,2.17,-15.67,-13.23,0,*77
1531101642.95,49850,20.19,74120.3,2.17,-15.81,-13.33,0,*76
1531101644.15,49851,20.19,74120.5,2.15,-15.99,-13.51,0,*78
1531101645.39,49852,20.19,74122.8,2.17,-16.23,-13.47,0,*7C
1531101646.61,49853,20.19,74116.8,2.15,-16.27,-13.51,0,*7C
1531101647.82,49854,20.19,74122.3,2.15,-16.41,-13.51,0,*7B
1531101649.07,49855,20.19,74120.0,2.17,-16.23,-13.11,0,*78
1531101650.29,49856,20.19,74118.5,2.15,-15.71,-12.83,0,*77
1531101651.54,49857,20.19,74122.5,2.17,-16.27,-13.47,0,*7D
1531101652.79,49858,20.19,74120.8,2.15,-16.23,-13.33,0,*77
1531101653.98,49859,20.19,74120.5,2.15,-16.59,-13.47,0,*78
1531101655.18,49860,20.19,74120.3,2.15,-16.59,-13.51,0,*75
1531101656.45,49861,20.19,74120.8,2.17,-17.17,-13.79,0,*77
1531101657.7,49862,20.19,74122.3,2.15,-17.25,-13.79,0,*77
1531101658.95,49863,20.19,74120.3,2.17,-17.17,-13.65,0,*78
1531101660.18,49864,20.19,74120.8,2.15,-17.03,-13.51,0,*7F
1531101661.38,49865,20.19,74122.0,2.15,-16.83,-13.51,0,*77
1531101662.63,49866,20.19,74120.3,2.13,-17.17,-13.65,0,*79
1531101663.85,49867,20.19,74120.3,2.15,-16.97,-13.37,0,*70
1531101665.05,49868,20.19,74120.3,2.15,-15.99,-12.39,0,*7D
1531101666.29,49869,20.19,74122.8,2.15,-15.35,-11.77,0,*73
1531101667.53,49870,20.19,74120.8,2.15,-14.97,-11.81,0,*7B
1531101668.74,49871,20.19,74120.8,2.15,-14.19,-11.15,0,*71
1531101669.97,49872,20.19,74120.0,2.15,-14.47,-11.23,0,*7C
1531101671.18,49873,20.19,74122.3,2.15,-13.51,-10.01,0,*7C
1531101672.41,49874,20.19,74122.0,2.15,-13.37,-10.31,0,*78
1531101673.64,49875,20.19,74122.5,2.15,-13.37,-10.09,0,*72
1531101674.85,49876,20.19,74120.8,2.15,-11.51,-8.55,0,*43
1531101676.04,49877,20.19,74118.3,2.15,-10.53,-7.83,0,*45
1531101677.27,49878,20.19,74120.0,2.15,-10.67,-8.25,0,*4E
1531101678.49,49879,20.19,74122.8,2.15,-10.79,-8.21,0,*44
1531101679.68,49880,20.19,74120.3,2.15,-11.23,-8.33,0,*4F
1531101680.89,49881,20.19,74120.8,2.15,-10.53,-8.07,0,*4F
1531101682.1,49882,20.19,74120.5,2.15,-9.89,-7.73,0,*7F
1531101683.35,49883,20.19,74118.0,2.15,-9.15,-7.31,0,*7D
1531101684.56,49884,20.19,74120.5,2.15,-9.49,-7.53,0,*77
1531101685.78,49885,20.19,74122.5,2.17,-10.15,-8.21,0,*4F
1531101687.06,49886,20.19,74120.3,2.17,-11.67,-8.51,0,*4F
1531101688.29,49887,20.19,74118.5,2.17,-11.55,-8.67,0,*4A
1531101689.52,49888,20.19,74118.3,2.17,-10.97,-8.21,0,*48
1531101690.74,49889,20.19,74116.3,2.17,-10.93,-8.41,0,*4B
1531101691.98,49890,20.19,74120.3,2.17,-11.11,-8.81,0,*44
1531101693.21,49891,20.19,74120.0,2.15,-12.25,-9.61,0,*4C
1531101694.43,49892,20.19,74122.0,2.17,-14.19,-10.85,0,*76
1531101695.68,49893,20.19,74126.3,2.15,-15.39,-11.67,0,*7B
1531101696.94,49894,20.19,74124.3,2.17,-15.35,-11.23,0,*72
1531101698.19,49895,20.19,74128.8,2.15,-16.09,-11.77,0,*7C
1531101699.41,49896,20.19,74126.5,2.17,-15.95,-11.11,0,*7B
1531101700.62,49897,20.19,74124.8,2.15,-15.07,-10.19,0,*7A
1531101701.84,49898,20.19,74124.5,2.17,-13.73,-9.01,0,*43
1531101703.09,49899,20.19,74122.0,2.15,-11.97,-8.07,0,*4F
1531101704.31,49900,20.19,74116.5,2.15,-10.85,-7.69,0,*4B
1531101705.55,49901,20.19,74122.5,2.17,-10.53,-7.61,0,*4B
1531101706.79,49902,20.19,74122.3,2.17,-9.89,-7.31,0,*72
1531101708.02,49903,20.19,74120.8,2.17,-9.57,-7.19,0,*7A
1531101709.27,49904,20.19,74120.0,2.17,-9.71,-7.43,0,*76
1531101710.47,49905,20.19,74122.3,2.15,-8.93,-7.19,0,*77
1531101711.7,49906,20.19,74120.0,2.17,-9.83,-8.41,0,*74
1531101712.95,49907,20.19,74124.3,2.17,-11.37,-8.89,0,*47
1531101714.19,49908,20.19,74126.3,2.17,-12.35,-8.55,0,*48
1531101715.44,49909,20.19,74122.8,2.17,-11.41,-7.69,0,*49
1531101716.71,49910,20.19,74120.3,2.17,-10.41,-7.73,0,*4B
1531101717.93,49911,20.19,74122.5,2.17,-10.85,-8.41,0,*4C
1531101719.17,49912,20.19,74122.8,2.17,-11.63,-8.63,0,*46
1531101720.42,49913,20.19,74124.5,2.17,-12.65,-9.05,0,*43
1531101721.64,49914,20.19,74120.8,2.17,-13.11,-9.01,0,*42
1531101722.92,49915,20.19,74122.5,2.17,-12.75,-8.11,0,*40
1531101724.19,49916,20.19,74120.0,2.17,-10.79,-7.61,0,*45
1531101725.44,49917,20.19,74122.0,2.17,-10.93,-8.11,0,*48
1531101726.66,49918,20.19,74124.0,2.17,-11.41,-8.75,0,*4B
1531101727.91,49919,20.19,74124.8,2.17,-13.19,-9.57,0,*44
1531101729.12,49920,20.19,74124.8,2.17,-13.65,-9.31,0,*45
1531101730.4,49921,20.19,74120.5,2.17,-12.07,-8.11,0,*42
1531101731.62,49922,20.19,74124.0,2.17,-10.31,-7.15,0,*4D
1531101732.84,49923,20.19,74120.3,2.17,-9.05,-6.47,0,*75
1531101734.04,49924,20.19,74120.3,2.19,-8.85,-6.85,0,*7B
1531101735.26,49925,20.19,74120.5,2.19,-9.11,-6.89,0,*7A
1531101736.47,49926,20.19,74120.3,2.19,-9.53,-7.11,0,*7F
1531101737.69,49927,20.19,74120.5,2.19,-10.23,-7.65,0,*42
1531101738.94,49928,20.19,74126.3,2.21,-10.71,-8.29,0,*46
1531101740.21,49929,20.19,74120.3,2.21,-11.59,-8.81,0,*4E
1531101741.45,49930,20.19,74124.0,2.19,-12.75,-9.57,0,*4A
1531101742.65,49931,20.19,74120.5,2.19,-13.55,-9.79,0,*44
1531101743.88,49932,20.19,74124.3,2.21,-13.51,-9.89,0,*47
1531101745.08,49933,20.19,74124.0,2.19,-13.55,-9.97,0,*46
1531101746.28,49934,20.19,74122.5,2.19,-13.93,-10.05,0,*78
1531101747.5,49935,20.19,74122.3,2.21,-13.65,-9.79,0,*48
1531101748.75,49936,20.19,74122.0,2.19,-13.29,-9.53,0,*40
1531101749.95,49937,20.19,74122.3,2.19,-12.21,-8.75,0,*4D
1531101751.18,49938,20.19,74118.8,2.19,-11.23,-8.07,0,*46
1531101752.4,49939,20.19,74120.5,2.19,-10.41,-7.49,0,*47
1531101753.63,49940,20.19,74122.5,2.21,-9.79,-7.05,0,*79
1531101754.86,49941,20.19,74120.5,2.19,-9.15,-6.89,0,*7C
1531101756.07,49942,20.19,74116.3,2.19,-8.37,-6.23,0,*7E
1531101757.34,49943,20.19,74118.5,2.21,-7.43,-5.77,0,*7A
1531101758.59,49944,20.19,74118.8,2.21,-7.19,-5.81,0,*7B
1531101759.8,49945,20.19,74118.5,2.19,-7.11,-5.65,0,*73
1531101761.02,49946,20.19,74118.0,2.19,-6.89,-5.65,0,*70
1531101762.29,49947,20.19,74116.0,2.21,-7.31,-5.93,0,*71
1531101763.5,49948,20.19,74118.5,2.19,-7.77,-6.43,0,*79
1531101764.72,49949,20.19,74120.5,2.19,-8.45,-7.43,0,*77
1531101765.96,49950,20.19,74122.8,2.21,-10.01,-8.03,0,*46
1531101767.19,49951,20.19,74120.5,2.21,-10.49,-8.85,0,*45
1531101768.47,49952,20.19,74120.8,2.21,-11.67,-9.37,0,*43
1531101769.74,49953,20.19,74122.5,2.21,-11.89,-9.37,0,*42
1531101770.96,49954,20.19,74122.0,2.19,-11.81,-9.27,0,*47
1531101772.18,49955,20.19,74120.0,2.19,-11.63,-8.63,0,*4B
1531101773.42,49956,20.19,74122.5,2.21,-11.29,-8.59,0,*44
1531101774.66,49957,20.19,74122.8,2.21,-11.19,-8.81,0,*43
1531101775.91,49958,20.19,74120.8,2.21,-10.71,-8.59,0,*46
1531101777.15,49959,20.19,74122.3,2.21,-11.19,-9.49,0,*48
1531101778.43,49960,20.19,74120.0,2.21,-11.89,-9.61,0,*41
1531101779.62,49961,20.19,74122.3,2.19,-12.03,-9.97,0,*43
1531101780.84,49962,20.19,74120.8,2.21,-12.03,-9.89,0,*44
1531101782.08,49963,20.19,74120.8,2.21,-12.25,-10.05,0,*7D
1531101783.36,49964,20.19,74122.8,2.21,-12.57,-10.71,0,*7C
1531101784.59,49965,20.19,74120.0,2.21,-13.51,-11.19,0,*75
1531101785.85,49966,20.19,74120.0,2.21,-13.29,-10.35,0,*76
1531101787.08,49967,20.19,74120.0,2.21,-12.03,-9.75,0,*42
1531101788.33,49968,20.19,74122.5,2.21,-11.97,-9.79,0,*4F
1531101789.61,49969,20.19,74120.8,2.21,-12.75,-10.63,0,*72
1531101790.85,49970,20.19,74126.3,2.21,-13.23,-10.89,0,*7C
1531101792.1,49971,20.19,74124.5,2.21,-13.73,-11.29,0,*73
1531101793.36,49972,20.19,74124.0,2.21,-14.37,-11.97,0,*72
1531101794.65,49973,20.19,74124.5,2.21,-14.51,-11.67,0,*7C
1531101795.91,49974,20.19,74124.5,2.21,-13.97,-10.89,0,*77
1531101797.16,49975,20.19,74126.5,2.21,-13.29,-10.85,0,*7F
1531101798.36,49976,20.19,74128.5,2.19,-13.43,-10.53,0,*70
1531101799.58,49977,20.19,74126.5,2.21,-12.29,-8.67,0,*49
1531101800.82,49978,20.19,74124.0,2.21,-9.61,-6.59,0,*73
1531101802.06,49979,20.19,74122.3,2.21,-8.03,-6.01,0,*7A
1531101803.3,49980,20.19,74118.8,2.19,-7.27,-5.93,0,*76
1531101804.52,49981,20.19,74120.5,2.19,-7.35,-6.59,0,*71
1531101805.75,49982,20.19,74120.8,2.21,-7.87,-7.05,0,*78
1531101807.0,49983,20.19,74122.5,2.21,-7.73,-6.43,0,*71
1531101808.21,49984,20.19,74120.3,2.19,-7.27,-6.09,0,*72
1531101809.46,49985,20.19,74118.3,2.21,-6.81,-6.19,0,*74
1531101810.68,49986,20.19,74118.0,2.21,-6.69,-6.81,0,*70
1531101811.91,49987,20.19,74120.8,2.21,-6.51,-6.55,0,*73
1531101813.1,49988,20.19,74122.3,2.23,-6.31,-6.85,0,*75
1531101814.31,49989,20.19,74126.8,2.23,-6.73,-7.35,0,*78
1531101815.5,49990,20.19,74124.3,2.23,-8.33,-8.85,0,*7E
1531101816.75,49991,20.19,74122.3,2.21,-10.93,-9.41,0,*47
1531101817.97,49992,20.19,74122.0,2.23,-9.67,-7.43,0,*79
1531101819.18,49993,20.19,74122.5,2.23,-7.23,-6.27,0,*75
1531101820.43,49994,20.19,74118.3,2.21,-6.01,-5.93,0,*7D
1531101821.67,49995,20.19,74122.8,2.23,-5.93,-6.19,0,*77
1531101822.89,49996,20.19,74122.8,2.23,-6.01,-6.27,0,*71
1531101824.1,49997,20.19,74122.3,2.25,-6.13,-5.97,0,*7D
1531101825.36,49998,20.19,74124.3,2.25,-6.27,-5.77,0,*7B
1531101826.59,49999,20.19,74118.5,2.23,-6.51,-5.23,0,*7C
1531101827.83,50000,20.19,74122.3,2.27,-5.73,-4.77,0,*7A
1531101829.07,50001,20.19,74122.5,2.25,-5.35,-5.07,0,*7D
1531101830.31,50002,20.19,74120.8,2.25,-5.19,-5.35,0,*71
1531101831.55,50003,20.19,74122.5,2.25,-5.43,-5.89,0,*78
1531101832.8,50004,20.19,74122.3,2.25,-5.77,-6.39,0,*70
1531101833.98,50005,20.19,74120.5,2.23,-6.05,-6.59,0,*77
1531101835.22,50006,20.19,74124.5,2.25,-6.63,-6.89,0,*7F
1531101836.44,50007,20.19,74124.3,2.25,-7.87,-8.37,0,*7E
1531101837.69,50008,20.19,74126.0,2.25,-10.27,-10.79,0,*7E
1531101838.95,50009,20.19,74124.0,2.25,-13.07,-10.71,0,*76
1531101840.19,50010,20.19,74124.0,2.25,-11.51,-7.15,0,*4B
1531101841.43,50011,20.19,74122.0,2.25,-8.21,-5.77,0,*73
1531101842.67,50012,20.19,74120.5,2.25,-6.69,-4.77,0,*73
1531101843.92,50013,20.19,74118.5,2.25,-5.11,-3.51,0,*7D
1531101845.17,50014,20.19,74112.0,2.25,-3.87,-2.55,0,*76
1531101846.42,50015,20.19,74114.8,2.25,-3.15,-2.55,0,*7C
1531101847.63,50016,20.19,74120.3,2.25,-3.23,-3.15,0,*7F
1531101848.85,50017,20.19,74120.5,2.25,-3.87,-4.53,0,*75
1531101850.09,50018,20.19,74120.5,2.25,-5.35,-6.23,0,*70
1531101851.3,50019,20.19,74126.3,2.27,-7.83,-9.57,0,*70
1531101852.53,50020,20.19,74120.0,2.27,-11.37,-13.11,0,*7B
1531101853.8,50021,20.19,74120.5,2.29,-11.63,-12.57,0,*76
1531101855.03,50022,20.19,74122.8,2.27,-11.81,-13.23,0,*75
1531101856.23,50023,20.19,74124.0,2.27,-13.19,-14.37,0,*75
1531101857.46,50024,20.19,74124.0,2.27,-14.33,-14.97,0,*77
1531101858.75,50025,20.19,74122.5,2.29,-14.47,-14.79,0,*7B
1531101859.98,50026,20.19,74120.8,2.27,-13.97,-14.11,0,*72
1531101861.23,50027,20.19,74120.0,2.27,-13.61,-13.83,0,*76
1531101862.46,50028,20.19,74124.0,2.27,-13.37,-13.19,0,*79
1531101863.72,50029,20.19,74118.8,2.25,-12.47,-11.85,0,*7B
1531101864.92,50030,20.19,74122.5,2.23,-11.01,-10.85,0,*75
1531101866.14,50031,20.19,74120.5,2.25,-10.85,-10.57,0,*70
1531101867.38,50032,20.19,74118.8,2.25,-10.15,-10.27,0,*7D
1531101868.64,50033,20.19,74118.5,2.25,-11.01,-11.63,0,*79
1531101869.92,50034,20.19,74120.0,2.25,-11.51,-11.93,0,*74
1531101871.17,50035,20.19,74124.8,2.25,-12.07,-12.39,0,*76
1531101872.46,50036,20.19,74122.5,2.25,-12.11,-12.35,0,*7E
1531101873.74,50037,20.19,74120.0,2.25,-11.97,-12.35,0,*72
1531101874.99,50038,20.19,74124.5,2.23,-12.11,-12.15,0,*74
1531101876.24,50039,20.19,74120.5,2.25,-12.35,-13.07,0,*77
1531101877.49,50040,20.19,74122.0,2.25,-13.37,-14.69,0,*75
1531101878.72,50041,20.19,74120.0,2.25,-14.11,-15.07,0,*7E
1531101879.95,50042,20.19,74120.5,2.23,-15.29,-16.27,0,*70
1531101881.17,50043,20.19,74124.0,2.23,-15.71,-17.03,0,*7B
1531101882.4,50044,20.19,74120.0,2.23,-16.59,-17.17,0,*70
1531101883.65,50045,20.19,74120.8,2.25,-15.57,-16.41,0,*78
1531101884.9,50046,20.19,74120.8,2.23,-16.13,-16.51,0,*7F
1531101886.1,50047,20.19,74122.0,2.23,-15.71,-16.41,0,*78
1531101887.3,50048,20.19,74122.5,2.23,-16.03,-16.89,0,*75
1531101888.58,50049,20.19,74120.5,2.21,-16.65,-17.55,0,*76
1531101889.86,50050,20.19,74122.3,2.21,-16.65,-17.21,0,*7D
1531101891.09,50051,20.19,74122.5,2.21,-15.25,-14.23,0,*7A
1531101892.32,50052,20.19,74120.0,2.21,-13.23,-13.43,0,*78
1531101893.57,50053,20.19,74120.0,2.21,-13.11,-13.87,0,*70
1531101894.8,50054,20.19,74118.5,2.21,-13.65,-13.73,0,*7F
1531101896.04,50055,20.19,74120.5,2.19,-13.29,-13.87,0,*76
1531101897.3,50056,20.19,74120.0,2.19,-14.01,-14.79,0,*7E
1531101898.5,50057,20.19,74120.3,2.19,-14.61,-15.67,0,*77
1531101899.78,50058,20.19,74122.0,2.21,-14.83,-15.89,0,*7F
1531101900.98,50059,20.19,74122.0,2.19,-15.15,-16.45,0,*78
1531101902.18,50060,20.19,74122.0,2.19,-15.67,-16.55,0,*76
1531101903.43,50061,20.19,74122.3,2.21,-15.89,-16.89,0,*7D
1531101904.68,50062,20.19,74122.3,2.19,-15.81,-16.69,0,*73
1531101905.91,50063,20.19,74120.5,2.19,-16.17,-16.97,0,*7F
1531101907.14,50064,20.19,74120.3,2.19,-16.79,-17.59,0,*73
1531101908.39,50065,20.19,74120.0,2.19,-17.07,-17.59,0,*7A
1531101909.61,50066,20.19,74120.5,2.19,-17.21,-17.73,0,*75
1531101910.84,50067,20.19,74120.0,2.19,-17.21,-17.69,0,*7F
1531101912.07,50068,20.19,74122.5,2.19,-17.25,-17.69,0,*74
1531101913.3,50069,20.19,74122.0,2.15,-16.37,-14.97,0,*79
1531101914.55,50070,20.19,74122.5,2.17,-13.19,-12.65,0,*71
1531101915.8,50071,20.19,74118.0,2.15,-11.89,-11.93,0,*73
1531101917.05,50072,20.19,74122.3,2.17,-12.65,-14.33,0,*7C
1531101918.31,50073,20.19,74120.3,2.17,-13.51,-13.61,0,*7B
1531101919.59,50074,20.19,74122.0,2.17,-12.75,-12.11,0,*7D
1531101920.82,50075,20.19,74124.3,2.17,-10.85,-10.97,0,*7D
1531101922.11,50076,20.19,74122.0,2.17,-11.51,-11.63,0,*7C
1531101923.36,50077,20.19,74122.8,2.17,-13.83,-14.23,0,*71
1531101924.64,50078,20.19,74120.5,2.17,-15.21,-15.85,0,*7D
1531101925.86,50079,20.19,74122.8,2.17,-15.11,-14.61,0,*74
1531101927.12,50080,20.19,74118.3,2.17,-15.53,-15.39,0,*78
1531101928.35,50081,20.19,74120.0,2.17,-15.95,-15.99,0,*79
1531101929.57,50082,20.19,74120.0,2.15,-15.67,-16.23,0,*77
1531101930.82,50083,20.19,74120.0,2.17,-15.71,-16.13,0,*70
1531101932.05,50084,20.19,74120.8,2.17,-16.37,-16.55,0,*74
1531101933.28,50085,20.19,74118.3,2.15,-15.81,-15.49,0,*77
1531101934.51,50086,20.19,74120.3,2.17,-14.61,-14.33,0,*75
1531101935.76,50087,20.19,74124.0,2.17,-15.35,-15.07,0,*72
1531101937.04,50088,20.19,74124.8,2.17,-15.35,-15.21,0,*79
1531101938.29,50089,20.19,74124.8,2.17,-16.37,-16.27,0,*7C
1531101939.48,50090,20.19,74124.0,2.15,-15.25,-14.11,0,*71
1531101940.75,50091,20.19,74126.5,2.17,-13.51,-12.35,0,*77
1531101941.95,50092,20.19,74120.8,2.15,-13.19,-9.97,0,*48
1531101943.16,50093,20.19,74114.0,2.15,-10.31,-7.99,0,*40
1531101944.36,50094,20.19,74112.8,2.15,-8.63,-7.19,0,*71
1531101945.6,50095,20.19,74112.3,2.15,-7.43,-7.01,0,*74
1531101946.87,50096,20.19,74116.0,2.17,-7.43,-8.07,0,*7C
1531101948.09,50097,20.19,74122.3,2.17,-9.31,-9.71,0,*76
1531101949.34,50098,20.19,74120.0,2.15,-11.81,-13.33,0,*74
1531101950.56,50099,20.19,74120.0,2.19,-14.79,-15.63,0,*78
1531101951.85,50100,20.19,74122.5,2.17,-16.09,-16.09,0,*7D
1531101953.05,50101,20.19,74122.0,2.15,-16.55,-16.41,0,*7B
1531101954.28,50102,20.19,74118.3,2.15,-17.03,-16.75,0,*7D
1531101955.54,50103,20.19,74124.5,2.15,-17.03,-16.69,0,*71
1531101956.76,50104,20.19,74122.3,2.15,-16.97,-16.23,0,*74
1531101957.95,50105,20.19,74120.5,2.15,-15.95,-15.67,0,*77
1531101959.21,50106,20.19,74120.0,2.15,-16.27,-15.85,0,*72
1531101960.43,50107,20.19,74122.3,2.15,-15.49,-15.21,0,*76
1531101961.68,50108,20.19,74118.8,2.15,-15.81,-15.85,0,*73
1531101962.91,50109,20.19,74120.3,2.15,-16.41,-16.27,0,*76
1531101964.11,50110,20.19,74122.8,2.15,-16.89,-16.55,0,*7F
1531101965.32,50111,20.19,74122.3,2.15,-16.83,-16.55,0,*74
1531101966.52,50112,20.19,74120.8,2.15,-16.75,-16.55,0,*7E
1531101967.77,50113,20.19,74122.5,2.13,-17.17,-16.89,0,*7D
1531101969.02,50114,20.19,74122.3,2.13,-17.21,-16.89,0,*7F
1531101970.25,50115,20.19,74122.5,2.13,-17.31,-16.79,0,*70
1531101971.51,50116,20.19,74120.8,2.13,-17.21,-16.75,0,*7E
1531101972.76,50117,20.19,74120.8,2.13,-17.21,-16.79,0,*73
1531101974.01,50118,20.19,74122.0,2.13,-17.21,-16.89,0,*73
1531101975.25,50119,20.19,74120.8,2.11,-17.17,-16.79,0,*7A
1531101976.5,50120,20.19,74122.3,2.11,-17.07,-16.65,0,*7C
1531101977.76,50121,20.19,74124.5,2.13,-17.03,-16.75,0,*7A
1531101979.01,50122,20.19,74120.3,2.11,-17.03,-16.65,0,*7A
1531101980.24,50123,20.19,74120.8,2.11,-16.89,-16.65,0,*78
1531101981.44,50124,20.19,74124.3,2.11,-16.75,-16.45,0,*7E
1531101982.68,50125,20.19,74122.0,2.13,-16.79,-16.59,0,*7C
1531101983.88,50126,20.19,74122.0,2.11,-16.89,-16.75,0,*7C
1531101985.1,50127,20.19,74120.3,2.07,-17.07,-16.93,0,*75
1531101986.33,50128,20.19,74120.3,2.07,-17.11,-16.79,0,*79
1531101987.55,50129,20.19,74122.0,2.11,-17.17,-16.93,0,*7D
1531101988.78,50130,20.19,74122.5,2.11,-17.17,-16.93,0,*75
1531101990.01,50131,20.19,74124.3,2.07,-17.21,-16.97,0,*72
1531101991.23,50132,20.19,74120.3,2.07,-17.25,-16.97,0,*75
1531101992.49,50133,20.19,74126.3,2.07,-17.25,-17.07,0,*7C
1531101993.71,50134,20.19,74122.5,2.07,-17.35,-17.11,0,*7D
1531101994.94,50135,20.19,74122.3,2.07,-17.25,-16.97,0,*72
1531101996.2,50136,20.13,74120.8,2.07,-17.41,-17.07,0,*7B
1531101997.43,50137,20.19,74120.0,2.07,-17.35,-17.07,0,*79
1531101998.72,50138,20.19,74120.8,2.05,-17.41,-17.03,0,*73
1531101999.96,50139,20.19,74122.3,2.05,-17.11,-16.89,0,*74
1531102001.21,50140,20.19,74120.0,2.05,-17.11,-16.97,0,*75
1531102002.5,50141,20.19,74122.5,2.05,-17.17,-17.03,0,*7E
1531102003.72,50142,20.19,74120.3,2.05,-17.31,-16.97,0,*75
1531102004.97,50143,20.19,74120.8,2.05,-16.83,-16.65,0,*71
1531102006.22,50144,20.19,74120.8,2.05,-17.11,-16.97,0,*71
1531102007.48,50145,20.19,74124.5,2.05,-17.03,-16.83,0,*76
1531102008.76,50146,20.19,74122.8,2.05,-16.69,-16.09,0,*7A
1531102009.96,50147,20.19,74120.5,2.03,-15.99,-15.63,0,*7E
1531102011.19,50148,20.19,74122.5,2.03,-16.55,-16.51,0,*70
1531102012.39,50149,20.19,74122.8,2.03,-16.89,-16.83,0,*7F
1531102013.61,50150,20.19,74124.0,2.03,-17.11,-16.89,0,*7D
1531102014.84,50151,20.19,74124.3,2.01,-17.35,-16.93,0,*73
1531102016.12,50152,20.19,74120.8,2.01,-16.69,-15.39,0,*7B
1531102017.38,50153,20.19,74122.8,2.01,-14.83,-14.29,0,*7C
1531102018.66,50154,20.19,74120.0,2.01,-14.51,-14.47,0,*7C
1531102019.92,50155,20.19,74126.5,2.03,-15.39,-16.13,0,*73
1531102021.17,50156,20.13,74120.8,2.01,-16.69,-16.75,0,*74
1531102022.38,50157,20.19,74122.3,2.03,-16.89,-16.41,0,*7E
1531102023.61,50158,20.19,74122.3,2.01,-16.03,-15.25,0,*70
1531102024.85,50159,20.19,74122.3,2.01,-15.29,-15.29,0,*76
1531102026.08,50160,20.13,74118.3,2.03,-15.85,-15.95,0,*7F
1531102027.31,50161,20.19,74120.8,2.01,-16.55,-16.55,0,*7D
1531102028.54,50162,20.19,74120.3,2.01,-16.75,-16.55,0,*7C
1531102029.77,50163,20.19,74120.3,2.01,-16.79,-16.55,0,*71
1531102030.98,50164,20.19,74118.8,2.03,-16.55,-16.37,0,*7E
1531102032.2,50165,20.19,74120.5,2.01,-16.79,-16.55,0,*77
1531102033.43,50166,20.19,74120.5,2.01,-16.59,-16.03,0,*75
1531102034.72,50167,20.19,74116.3,2.01,-15.85,-15.39,0,*7C
1531102035.99,50168,20.19,74118.3,2.01,-15.39,-14.79,0,*71
1531102037.22,50169,20.19,74120.8,2.03,-15.11,-14.55,0,*76
1531102038.47,50170,20.19,74116.3,2.01,-14.89,-14.51,0,*78
1531102039.72,50171,20.19,74118.3,2.01,-14.83,-15.15,0,*72
1531102040.94,50172,20.19,74118.3,2.01,-16.03,-16.45,0,*7D
1531102042.19,50173,20.19,74120.8,2.01,-16.45,-16.31,0,*7D
1531102043.43,50174,20.13,74116.0,2.01,-16.41,-16.41,0,*79
1531102044.63,50175,20.19,74122.5,1.99,-16.75,-16.55,0,*78
1531102045.88,50176,20.13,74118.8,1.97,-16.65,-16.37,0,*70
1531102047.13,50177,20.19,74118.3,1.99,-15.57,-14.97,0,*75
1531102048.35,50178,20.19,74120.3,1.99,-14.69,-14.51,0,*7C
1531102049.57,50179,20.19,74116.8,1.99,-15.11,-15.43,0,*71
1531102050.82,50180,20.19,74116.3,1.97,-15.71,-16.09,0,*72
1531102052.04,50181,20.19,74122.8,1.99,-16.31,-16.45,0,*72
1531102053.29,50182,20.19,74120.8,1.97,-16.51,-16.79,0,*76
1531102054.51,50183,20.13,74118.3,1.99,-16.69,-16.89,0,*7D
1531102055.73,50184,20.19,74120.0,1.99,-17.03,-17.31,0,*75
1531102057.0,50185,20.19,74120.0,1.97,-17.25,-17.25,0,*7B
1531102058.25,50186,20.19,74122.5,1.99,-17.07,-17.21,0,*72
1531102059.5,50187,20.19,74122.8,1.99,-17.03,-17.21,0,*77
1531102060.73,50188,20.13,74118.5,1.99,-16.93,-17.07,0,*74
1531102061.95,50189,20.13,74118.5,1.97,-16.93,-16.97,0,*73
1531102063.15,50190,20.19,74122.3,1.99,-16.79,-16.79,0,*71
1531102064.35,50191,20.19,74122.8,1.99,-16.55,-16.89,0,*71
1531102065.6,50192,20.19,74120.3,1.97,-16.65,-16.97,0,*70
1531102066.85,50193,20.19,74120.3,1.99,-16.31,-17.03,0,*72
1531102068.13,50194,20.13,74120.5,1.97,-15.89,-16.65,0,*7A
1531102069.37,50195,20.13,74120.3,1.99,-15.01,-15.57,0,*77
1531102070.6,50196,20.13,74116.0,1.97,-13.55,-13.19,0,*71
1531102071.82,50197,20.19,74122.0,1.97,-12.03,-12.29,0,*70
1531102073.07,50198,20.19,74118.5,1.97,-11.51,-12.43,0,*77
1531102074.32,50199,20.19,74116.0,1.97,-11.63,-12.47,0,*73
1531102075.56,50200,20.19,74112.8,1.97,-11.19,-11.97,0,*73
1531102076.82,50201,20.19,74114.5,1.99,-11.67,-12.71,0,*7E
1531102078.02,50202,20.19,74118.8,1.99,-13.11,-14.37,0,*7A
1531102079.26,50203,20.13,74116.8,1.99,-14.15,-15.43,0,*7A
1531102080.51,50204,20.19,74118.5,1.97,-15.07,-16.09,0,*7C
1531102081.75,50205,20.19,74116.5,1.97,-15.21,-15.63,0,*76
1531102083.0,50206,20.19,74118.3,1.97,-15.29,-16.09,0,*72
1531102084.27,50207,20.13,74118.3,1.97,-15.89,-16.65,0,*73
1531102085.47,50208,20.19,74122.8,1.99,-16.79,-17.31,0,*7E
1531102086.72,50209,20.19,74122.5,1.99,-17.07,-17.21,0,*76
1531102087.93,50210,20.13,74116.5,1.99,-15.67,-15.29,0,*70
1531102089.15,50211,20.13,74116.5,1.97,-13.69,-13.43,0,*7D
1531102090.4,50212,20.19,74118.0,1.97,-12.71,-12.89,0,*71
1531102091.68,50213,20.19,74116.5,1.97,-12.71,-12.11,0,*71
1531102092.9,50214,20.13,74116.5,1.99,-12.11,-11.11,0,*7D
1531102094.15,50215,20.19,74118.0,1.97,-11.33,-10.89,0,*71
1531102095.35,50216,20.19,74116.0,1.99,-10.97,-11.15,0,*77
1531102096.6,50217,20.19,74118.5,1.97,-11.19,-11.63,0,*7E
1531102097.82,50218,20.19,74116.5,1.99,-11.19,-12.11,0,*79
1531102099.08,50219,20.13,74114.5,1.99,-11.29,-11.93,0,*72
1531102100.33,50220,20.19,74116.3,1.99,-11.33,-12.07,0,*7D
1531102101.53,50221,20.13,74116.5,1.99,-12.25,-13.55,0,*7E
1531102102.79,50222,20.19,74118.0,1.97,-14.19,-14.83,0,*76
1531102104.04,50223,20.19,74116.0,1.97,-14.83,-15.07,0,*79
1531102105.26,50224,20.13,74116.8,1.97,-14.33,-14.69,0,*7C
1531102106.5,50225,20.19,74116.3,1.99,-14.01,-14.23,0,*7C